Weather History for New Orleans Lakefront, LA

Change the Weather History Date:

Sunday, August 18, 2013

  Actual Average Record
Temperature  
Mean Temperature 79 °F 83 °F  
Max Temperature 83 °F 91 °F 98 °F (2011)
Min Temperature 75 °F 75 °F 67 °F (1967)
Degree Days  
Heating Degree Days 0 0  
Month to date heating degree days 0 0  
Since 1 June heating degree days 0 0  
Since 1 July heating degree days 0 0  
Cooling Degree Days 14 18  
Month to date cooling degree days 351 324  
Year to date cooling degree days 1931 2004  
Since 1 June cooling degree days 1438 1385  
Growing Degree Days 28 (Base 50)    
Moisture  
Dew Point 74 °F    
Average Humidity 82    
Maximum Humidity 94    
Minimum Humidity 69    
Precipitation  
Precipitation 0.00 in 0.20 in 1.95 in (1988)
Month to date precipitation 3.75 3.50  
Year to date precipitation 46.84 41.73  
Snow  
Snow 0.00 in - - ()
Month to date snowfall 0.0  
Since 1 June snowfall 0.0  
Since 1 July snowfall 0.0  
Snow Depth 0.00 in    
Sea Level Pressure  
Sea Level Pressure 29.95 in    
Wind  
Wind Speed 9 mph (NNE)    
Max Wind Speed 22 mph    
Max Gust Speed 26 mph    
Visibility 9 miles    
Events Rain    
T = Trace of Precipitation, MM = Missing Value Source: NWS Daily Summary

Daily Weather History Graph

Daily Weather History Graph

Search for Another Location

Airport:

Trip Planner

Search our weather history database for the weather conditions in past years. The results will help you decide how hot, cold, wet, or windy it might be!

Date:

Astronomy

Aug. 18, 2013 Rise Set
Actual Time 6:29 AM CDT 7:37 PM CDT
Civil Twilight 6:04 AM CDT 8:02 PM CDT
Nautical Twilight 5:34 AM CDT 8:32 PM CDT
Astronomical Twilight 5:04 AM CDT 9:03 PM CDT
Moon 5:40 PM CDT (8/18) 3:44 AM CDT (8/18)
Length of Visible Light 13h 58m
Length of Day
13h 08m
Waxing Gibbous, 92% of the Moon is Illuminated
Aug 18
Waxing Gibbous
Aug 20
Full
Aug 28
Last Quarter
Sep 5
New
Sep 12
First Quarter

Hourly Weather History & Observations

Time (CDT) Temp. Heat Index Dew Point Humidity Pressure Visibility Wind Dir Wind Speed Gust Speed Precip Events Conditions
12:02 AM 77.0 °F - 75.2 °F 94% 29.95 in 10.0 mi NE 12.7 mph - N/A   Overcast
12:15 AM 77.0 °F - 75.2 °F 94% 29.95 in 3.0 mi ENE 11.5 mph - 0.03 in Rain Rain
12:22 AM 77.0 °F - 73.4 °F 89% 29.95 in 3.0 mi ENE 9.2 mph - 0.03 in Rain Light Rain
12:44 AM 77.0 °F - 75.2 °F 94% 29.94 in 8.0 mi NE 10.4 mph - 0.04 in Rain Light Rain
12:46 AM 77.0 °F - 75.2 °F 94% 29.94 in 9.0 mi East 10.4 mph - 0.04 in Rain Light Rain
12:53 AM 77.0 °F - 75.0 °F 94% 29.93 in 10.0 mi ENE 9.2 mph - 0.04 in   Overcast
1:05 AM 78.8 °F - 73.4 °F 83% 29.94 in 10.0 mi ENE 9.2 mph - N/A   Mostly Cloudy
1:15 AM 78.8 °F - 75.2 °F 89% 29.94 in 10.0 mi NE 6.9 mph - N/A   Mostly Cloudy
1:44 AM 78.8 °F - 75.2 °F 89% 29.93 in 10.0 mi NE 8.1 mph - N/A   Overcast
1:53 AM 78.1 °F - 75.0 °F 90% 29.91 in 10.0 mi NE 9.2 mph - N/A   Overcast
2:01 AM 78.8 °F - 75.2 °F 89% 29.93 in 10.0 mi NE 10.4 mph - N/A   Overcast
2:13 AM 78.8 °F - 75.2 °F 89% 29.93 in 10.0 mi NE 12.7 mph - N/A   Overcast
2:45 AM 78.8 °F - 75.2 °F 89% 29.93 in 10.0 mi NNE 12.7 mph - N/A   Overcast
2:53 AM 77.0 °F - 75.0 °F 94% 29.91 in 10.0 mi NE 11.5 mph - N/A   Overcast
3:41 AM 77.0 °F - 75.2 °F 94% 29.93 in 10.0 mi NNE 16.1 mph - N/A   Mostly Cloudy
3:53 AM 77.0 °F - 75.0 °F 94% 29.91 in 10.0 mi NE 16.1 mph - N/A   Mostly Cloudy
4:53 AM 77.0 °F - 73.9 °F 90% 29.90 in 10.0 mi NNE 18.4 mph - N/A   Mostly Cloudy
5:06 AM 77.0 °F - 75.2 °F 94% 29.93 in 10.0 mi NNE 19.6 mph - N/A   Mostly Cloudy
5:18 AM 77.0 °F - 73.4 °F 89% 29.92 in 10.0 mi NNE 18.4 mph - N/A   Scattered Clouds
5:28 AM 75.2 °F - 73.4 °F 94% 29.92 in 10.0 mi NNE 19.6 mph - N/A   Mostly Cloudy
5:53 AM 75.9 °F - 73.9 °F 94% 29.91 in 10.0 mi NE 19.6 mph - N/A   Overcast
6:53 AM 75.9 °F - 73.0 °F 91% 29.92 in 10.0 mi NE 21.9 mph - N/A   Mostly Cloudy
7:53 AM 75.9 °F - 73.0 °F 91% 29.94 in 10.0 mi NNE 18.4 mph - N/A   Overcast
8:28 AM 75.2 °F - 71.6 °F 89% 29.96 in 10.0 mi NNE 17.3 mph - N/A   Overcast
8:53 AM 77.0 °F - 72.0 °F 84% 29.94 in 10.0 mi NNE 18.4 mph - N/A   Overcast
9:53 AM 78.1 °F - 72.0 °F 81% 29.96 in 10.0 mi NNE 16.1 mph - N/A   Overcast
10:53 AM 79.0 °F - 72.0 °F 79% 29.97 in 10.0 mi NNE 15.0 mph - N/A   Overcast
11:53 AM 81.0 °F 85.8 °F 73.0 °F 77% 29.97 in 10.0 mi North 13.8 mph - N/A   Overcast
12:53 PM 81.0 °F 85.8 °F 73.0 °F 77% 29.95 in 10.0 mi North 10.4 mph - N/A   Overcast
1:09 PM 80.6 °F 85.4 °F 73.4 °F 79% 29.97 in 10.0 mi North 10.4 mph - N/A   Overcast
1:43 PM 80.6 °F 85.4 °F 73.4 °F 79% 29.98 in 10.0 mi North 9.2 mph - N/A   Overcast
1:53 PM 81.0 °F 85.8 °F 73.0 °F 77% 29.96 in 10.0 mi North 10.4 mph - N/A   Overcast
2:27 PM 78.8 °F - 73.4 °F 83% 29.98 in 4.0 mi NNW 11.5 mph - N/A   Haze
2:37 PM 78.8 °F - 73.4 °F 83% 29.98 in 8.0 mi NNW 10.4 mph - N/A   Overcast
2:53 PM 80.1 °F 84.2 °F 73.0 °F 79% 29.96 in 10.0 mi NNW 10.4 mph - N/A   Overcast
3:53 PM 81.0 °F 85.8 °F 73.0 °F 77% 29.96 in 10.0 mi WNW 4.6 mph - N/A   Overcast
4:53 PM 82.0 °F 87.4 °F 73.0 °F 74% 29.96 in 10.0 mi WNW 10.4 mph - N/A   Scattered Clouds
5:53 PM 82.0 °F 87.4 °F 73.0 °F 74% 29.96 in 10.0 mi WNW 9.2 mph - N/A   Clear
6:53 PM 81.0 °F 85.8 °F 73.0 °F 77% 29.96 in 10.0 mi NW 10.4 mph - N/A   Partly Cloudy
7:53 PM 81.0 °F 85.8 °F 73.0 °F 77% 29.97 in 10.0 mi NNW 9.2 mph - N/A   Partly Cloudy
8:53 PM 80.1 °F 84.2 °F 73.0 °F 79% 29.98 in 10.0 mi NNW 10.4 mph - N/A   Clear
9:53 PM 79.0 °F - 73.0 °F 82% 29.99 in 10.0 mi North 6.9 mph - N/A   Clear
10:53 PM 78.1 °F - 72.0 °F 81% 29.99 in 10.0 mi North 4.6 mph - N/A   Scattered Clouds
11:38 PM 78.8 °F - 73.4 °F 83% 30.01 in 10.0 mi ENE 6.9 mph - N/A   Mostly Cloudy
11:53 PM 78.1 °F - 72.0 °F 81% 29.99 in 10.0 mi NE 3.5 mph - N/A   Scattered Clouds